Wind_Speed
8 8 8 8 9 10 10 10 11 13 15 15 14 13 13 12 12 13 13 14 15 16 17 18 19 19 20 20 21 22 22 23 23 23 23 24 24 24 23 23 22 22 22 21 21 21 21 21 21 22 22 23 23 23 23 23 23 23 22 22 23 23 24 24 24 24 23 23 22 22 21 21 20 20 20 20 20 21 21 22 22 22 22 22 22
8 9 9 9 9 10 9 9 11 14 16 16 14 12 11 11 11 12 12 13 14 15 16 17 17 18 19 19 20 20 21 22 22 23 23 24 24 23 23 22 22 21 21 21 21 21 21 21 21 21 22 22 23 23 23 23 23 23 23 22 22 22 22 23 22 22 22 21 21 21 20 20 20 19 20 20 20 21 21 21 21 21 21 22 22
8 10 11 10 9 9 8 8 10 12 14 14 12 10 10 10 11 12 12 13 13 14 14 14 15 15 16 17 17 18 19 20 21 22 22 23 23 23 22 22 21 21 21 21 21 21 21 21 21 21 22 22 21 21 22 22 22 22 22 22 22 22 21 21 21 21 20 20 20 20 19 19 19 20 20 20 21 21 21 21 21 21 21 22 22
8 10 11 11 8 7 6 6 8 9 10 10 10 9 9 9 10 11 12 12 12 12 12 12 12 12 13 14 15 15 16 17 18 19 19 20 20 21 21 21 20 20 20 20 20 20 20 20 20 21 20 20 20 20 20 19 19 20 20 20 20 21 20 20 20 20 19 19 19 19 19 19 19 20 20 20 21 21 21 21 21 21 21 22 21
7 9 11 10 6 4 3 4 6 7 8 9 9 9 9 10 10 11 11 11 11 11 11 11 11 11 12 12 13 13 13 13 14 14 15 16 17 17 18 18 18 18 18 18 18 18 18 18 19 19 18 18 19 19 18 18 18 18 18 18 19 19 20 20 20 19 19 19 19 19 19 19 19 19 20 20 21 21 21 20 20 21 21 21 21
7 9 10 10 7 5 4 4 6 8 9 9 9 9 9 10 10 10 10 10 10 10 11 11 11 11 11 11 12 12 12 12 12 12 12 13 14 14 15 16 16 17 17 17 17 17 17 17 17 17 17 18 18 18 17 17 18 18 18 18 18 19 20 20 20 20 20 20 20 19 20 20 20 20 20 20 20 21 21 20 20 21 21 21 21
8 10 10 8 7 6 4 5 7 9 10 10 9 9 8 9 8 8 8 8 8 9 10 10 10 11 11 11 12 12 12 13 13 12 12 12 13 13 14 14 15 16 16 16 16 17 17 17 17 17 18 18 18 18 18 18 18 18 18 18 19 19 20 20 21 20 20 21 20 20 20 20 20 20 20 20 20 20 21 21 20 20 21 21 21
9 11 11 9 8 7 5 6 7 8 9 9 9 9 9 8 8 7 7 7 7 8 9 10 11 11 11 11 12 12 13 13 14 14 14 14 15 15 15 16 16 16 17 17 17 18 18 18 18 18 18 18 19 18 18 18 19 19 19 19 19 20 20 21 21 21 21 21 21 21 21 21 21 21 21 21 21 21 21 21 20 20 20 21 21
10 10 11 10 9 9 8 7 8 8 9 9 9 9 9 9 8 8 8 8 9 9 10 11 12 12 12 12 13 13 14 14 14 15 15 16 16 17 17 18 18 18 18 19 19 19 19 19 18 18 18 18 19 19 18 18 18 18 19 19 19 20 20 21 21 21 21 21 21 21 21 21 21 21 21 21 21 21 21 20 20 20 20 21 20
12 10 12 11 10 10 9 9 9 9 9 9 9 9 9 10 9 9 10 10 11 11 12 12 13 13 13 14 14 14 15 15 15 15 16 16 17 17 17 18 19 19 19 19 19 19 18 18 17 17 17 17 18 18 18 17 17 17 18 18 18 19 19 20 21 21 22 21 22 22 22 22 22 22 22 21 21 21 21 21 20 20 20 20 20
14 12 13 12 10 10 10 10 10 10 10 10 10 10 10 11 11 11 11 12 12 12 13 13 13 14 14 14 15 15 15 16 16 16 16 16 16 17 17 17 18 18 18 18 18 17 17 16 16 15 16 16 17 17 17 16 16 16 16 16 16 17 17 18 19 20 21 21 22 22 22 22 22 22 21 21 20 20 20 20 20 20 20 20 20
13 12 12 11 10 9 9 10 10 10 10 10 10 10 10 10 10 10 11 11 11 12 12 13 13 13 14 14 14 14 15 15 15 16 16 16 16 16 16 16 17 16 16 16 16 16 15 15 15 15 15 16 17 17 16 16 15 15 15 14 14 14 15 15 17 18 18 19 20 20 21 21 21 21 20 20 20 20 20 20 20 20 20 20 20
10 9 8 7 6 6 5 5 6 6 6 6 7 7 7 7 8 8 9 9 10 10 11 12 12 13 13 13 14 14 14 14 15 15 15 15 15 15 16 16 16 16 16 16 16 16 16 15 15 15 15 16 16 16 16 15 15 14 14 13 13 13 13 13 14 16 16 16 18 18 18 19 19 19 19 19 19 19 19 19 19 20 19 19 19
10 10 8 7 5 4 2 2 2 3 3 3 4 4 5 5 6 7 7 8 8 9 10 10 11 11 12 12 12 13 13 14 14 15 15 15 15 15 16 16 16 16 16 17 17 17 16 16 16 15 15 16 16 16 16 15 14 14 14 13 13 12 12 11 12 15 14 15 16 16 17 17 18 18 19 19 19 19 18 19 19 19 19 19 19
12 11 9 8 7 5 4 2 2 2 2 1 2 2 3 3 4 5 5 6 7 7 8 9 9 10 10 10 10 11 11 12 13 13 14 14 14 15 15 15 15 16 16 16 17 17 17 16 16 16 16 16 17 17 16 16 15 14 14 14 13 13 12 12 12 13 13 14 15 16 16 17 17 18 19 19 19 18 18 18 19 19 19 18 18
13 12 11 9 8 6 4 3 2 2 3 3 3 3 2 2 2 3 3 3 4 5 6 7 7 8 8 8 8 8 9 9 10 11 12 12 12 13 13 13 14 14 15 15 16 16 16 16 16 16 16 16 16 17 17 17 16 15 15 15 14 14 13 13 13 13 13 14 15 16 16 17 17 18 18 18 18 18 18 18 19 19 19 18 18
15 14 13 12 10 8 5 3 2 3 4 4 5 5 5 4 3 2 2 2 2 3 4 4 5 5 6 6 6 6 6 7 8 8 9 10 11 11 11 12 12 13 14 14 15 15 15 16 16 16 16 16 16 17 18 17 16 16 16 15 15 15 14 14 13 13 13 14 15 16 16 17 17 17 17 17 18 18 18 18 19 19 18 18 17
18 17 16 14 13 10 6 3 3 4 4 5 5 6 5 4 3 2 1 1 2 3 3 3 3 3 3 3 4 4 5 5 6 7 8 8 9 10 10 11 12 12 13 14 15 15 16 16 16 16 16 15 16 16 17 17 16 16 16 15 15 15 15 14 14 14 14 13 14 15 16 16 17 17 17 17 18 18 19 19 19 19 18 17 16
18 17 16 15 15 13 10 5 5 7 7 6 6 5 5 3 2 2 3 4 4 5 5 6 6 6 5 5 5 5 5 5 6 6 7 8 9 9 10 10 11 11 12 13 14 15 16 16 16 16 15 15 15 15 16 16 16 16 15 15 15 14 14 14 14 14 14 14 14 14 15 16 16 17 17 17 18 19 19 19 19 18 17 16 15
18 17 17 17 17 17 16 11 7 9 9 7 5 4 3 3 4 4 5 5 5 5 6 8 8 8 8 8 8 8 7 6 6 7 8 9 9 10 10 10 10 10 11 12 13 14 14 15 15 15 14 14 14 14 15 15 16 15 15 15 15 14 13 13 14 14 13 14 14 14 15 16 16 16 16 17 18 18 18 18 17 17 16 15 14
18 17 18 18 20 21 21 19 14 11 10 8 6 5 5 6 7 6 6 5 5 5 6 7 8 8 8 8 8 8 7 7 8 9 10 11 11 10 10 10 9 9 10 11 12 13 13 14 14 14 14 14 14 14 14 14 14 14 14 14 14 14 13 13 14 13 13 13 14 14 14 15 15 16 16 17 18 18 17 17 16 15 14 14 12
17 18 19 19 21 23 24 23 20 16 13 11 9 9 9 9 8 7 7 6 6 7 7 7 8 8 9 9 8 9 9 9 10 11 12 12 12 10 8 7 7 8 10 11 12 13 13 13 13 13 13 13 13 14 14 14 14 13 13 13 13 13 13 13 14 13 13 13 13 13 14 14 14 15 16 16 17 16 16 15 14 14 13 13 11
17 18 18 20 21 23 24 24 22 19 16 14 13 12 11 11 10 9 9 9 9 9 9 9 9 9 10 10 11 11 12 12 12 13 14 14 13 11 7 6 7 8 10 11 12 13 14 14 14 14 13 12 12 12 13 14 14 14 13 13 12 12 13 13 14 14 13 13 13 13 14 14 14 15 16 16 16 15 15 14 13 13 12 12 11
16 17 17 19 20 22 23 23 22 20 18 16 14 13 12 12 11 11 11 11 11 11 11 11 11 11 12 12 13 14 14 14 14 15 16 15 15 14 11 8 8 9 10 11 12 14 15 15 16 15 14 13 12 11 12 13 14 14 14 13 11 11 13 14 15 15 14 13 13 12 13 13 13 14 16 16 15 15 14 13 13 12 12 11 11
15 16 16 17 19 20 21 22 21 20 19 17 15 14 13 13 13 13 13 12 12 13 13 13 13 13 14 14 15 15 15 16 16 17 18 17 16 14 13 11 10 10 10 11 12 14 14 16 17 17 16 15 14 13 12 12 13 14 14 14 12 11 12 13 15 16 15 14 13 12 12 12 12 13 15 15 15 14 14 13 13 12 12 11 10
13 14 15 16 17 17 18 19 19 19 18 17 16 15 14 14 13 13 13 13 13 14 14 14 14 14 14 14 15 15 16 17 17 18 18 18 17 16 15 14 13 12 12 12 12 13 14 15 16 17 17 17 17 15 14 13 12 12 13 13 13 13 13 12 14 16 15 14 14 12 12 11 11 12 14 15 15 14 13 13 13 13 12 11 11
11 12 13 14 15 15 16 17 17 17 16 16 15 15 14 14 14 14 13 13 13 13 13 13 13 13 13 13 14 14 15 15 16 17 18 18 18 17 17 17 16 15 14 14 14 15 15 15 15 16 16 16 16 16 15 14 13 12 12 12 12 14 14 14 15 15 15 14 14 14 13 13 12 12 13 13 14 14 14 13 12 13 13 12 11
10 10 11 12 13 13 14 15 15 15 15 14 14 13 13 13 13 14 14 14 13 13 12 12 12 12 12 12 13 12 13 14 15 17 17 17 18 18 18 17 17 16 16 16 17 17 17 17 17 17 17 17 17 16 16 15 15 14 13 14 14 14 14 15 16 16 15 14 13 14 14 14 13 12 12 12 13 13 13 13 12 12 13 13 12
8 8 9 9 10 11 12 13 13 13 13 13 12 12 12 12 12 12 13 13 13 13 12 12 11 11 11 11 11 11 11 12 13 15 16 17 18 18 18 18 17 17 17 17 18 17 17 16 17 18 17 17 17 17 17 17 16 16 15 15 15 15 15 15 16 16 15 14 13 14 14 15 14 12 12 11 11 12 12 13 12 12 13 13 12
6 7 7 8 8 9 9 10 10 11 11 11 11 10 11 11 11 11 11 12 12 12 12 12 11 11 11 10 10 10 10 11 13 14 15 16 17 17 18 18 17 17 17 17 16 16 16 16 17 17 17 16 17 16 15 15 15 15 15 15 14 14 14 15 16 15 14 13 13 14 14 14 14 13 12 11 11 11 11 12 12 12 13 13 13
5 5 6 7 7 7 7 8 8 9 9 9 9 9 9 9 9 10 10 10 10 11 11 11 11 11 11 10 10 10 11 11 13 14 15 16 16 17 17 17 17 17 16 16 16 16 16 16 17 17 17 16 16 15 14 14 13 12 14 15 14 13 13 14 14 13 12 12 13 13 13 14 14 14 13 12 11 10 10 11 11 12 13 13 13
5 5 6 7 7 7 7 7 7 8 8 9 9 8 7 7 8 8 9 9 10 10 10 10 10 10 10 10 10 11 11 12 14 15 16 16 17 17 17 18 18 17 17 17 17 17 17 17 17 17 17 17 16 15 15 14 14 12 12 14 14 14 13 13 13 12 11 11 12 13 13 13 13 13 13 13 12 11 10 10 10 11 12 13 14
7 6 6 8 8 8 8 7 7 7 8 8 9 9 8 7 8 8 9 9 10 10 11 11 11 11 11 11 11 11 12 13 14 15 16 17 17 17 18 18 18 19 19 19 19 19 18 18 18 17 17 17 17 16 15 16 16 15 14 14 14 14 14 13 13 13 12 12 12 13 13 12 12 12 13 13 13 12 11 10 10 11 12 13 14
10 9 7 8 9 9 9 8 8 7 8 8 9 9 9 9 9 9 9 10 10 11 11 11 12 12 13 13 13 13 13 13 14 15 16 16 17 17 17 18 18 19 19 20 20 20 20 19 18 18 18 17 17 17 17 17 17 17 17 15 15 14 14 13 13 13 13 14 13 13 13 12 11 11 13 14 14 14 13 12 10 10 11 13 14
11 10 9 9 10 10 10 9 8 8 8 8 9 9 9 9 10 10 10 11 11 11 12 12 12 12 13 14 14 14 14 13 13 14 15 15 16 17 18 18 19 19 20 20 20 21 20 20 20 19 19 18 17 17 18 19 18 18 19 18 17 15 15 15 14 13 12 13 14 14 13 13 12 12 13 14 14 13 13 13 12 11 11 12 13
10 11 9 9 10 10 10 10 9 8 8 9 9 9 10 10 10 11 11 11 11 11 12 12 12 13 14 15 16 16 15 14 14 14 15 16 17 18 19 20 20 21 22 22 22 22 21 21 21 20 20 19 18 18 18 20 20 19 19 20 19 17 16 15 15 14 12 11 13 14 13 13 14 14 14 13 13 13 13 13 13 12 12 12 12
11 11 10 10 11 11 11 10 9 9 9 9 10 10 11 11 12 12 11 11 11 12 12 12 12 13 14 15 16 17 16 16 16 17 17 18 18 19 20 21 22 22 23 23 23 23 23 22 21 21 20 20 20 18 18 19 20 20 20 21 21 19 17 16 15 15 14 12 11 12 13 13 14 15 15 13 13 13 13 13 13 13 13 12 12
12 11 11 10 11 12 12 11 10 9 9 10 11 12 12 13 13 13 13 12 12 12 12 13 13 14 15 16 16 17 18 18 19 19 20 20 20 21 21 22 23 23 23 23 23 23 23 23 22 21 21 20 21 20 18 18 20 20 20 21 21 20 19 18 17 16 15 13 12 12 13 13 14 14 15 14 12 12 12 13 14 14 14 13 13
12 12 12 11 11 12 13 12 11 9 9 10 12 13 14 14 14 14 14 14 14 14 14 14 15 16 16 17 18 18 19 20 21 21 21 21 21 21 21 22 23 24 24 24 23 23 23 23 23 22 21 21 21 20 19 19 19 19 19 20 21 21 20 19 19 18 16 13 12 13 14 14 14 14 14 13 12 12 12 12 14 15 15 15 15
12 12 11 12 11 12 12 12 11 10 10 11 12 14 15 16 16 16 16 16 16 16 16 17 17 18 19 19 20 20 21 22 23 23 22 22 21 21 22 22 23 24 25 25 25 24 23 23 23 22 22 22 21 20 19 19 19 19 19 20 21 21 21 20 20 20 18 16 13 12 14 14 14 13 13 12 13 13 12 12 14 16 16 16 16
11 12 12 12 13 13 13 12 11 10 10 11 13 15 16 18 18 18 18 18 18 18 18 19 19 20 21 22 23 23 24 24 24 25 25 24 23 24 24 24 24 24 25 26 26 25 24 22 22 22 22 22 22 21 19 19 19 19 19 20 21 21 21 21 21 20 20 19 16 14 13 14 14 14 13 12 13 14 14 14 14 15 16 17 17
11 12 12 13 13 14 14 14 13 11 11 12 14 15 17 19 20 20 20 20 20 21 21 21 22 23 24 25 26 26 27 27 27 27 27 28 27 27 28 27 27 27 27 27 27 27 25 23 22 21 21 21 22 22 20 19 19 19 19 19 21 22 22 22 22 21 20 20 19 16 14 13 13 13 12 12 13 15 15 15 15 14 15 17 18
12 13 13 13 14 14 15 16 15 13 13 13 14 16 18 20 21 21 23 23 23 23 24 24 25 25 26 27 28 29 30 30 30 29 29 30 30 30 31 30 30 29 29 29 28 28 27 25 23 21 21 21 21 22 21 20 19 19 19 19 20 22 23 24 23 22 21 20 20 18 16 14 12 11 12 12 13 15 16 16 16 15 15 17 18
15 15 15 15 15 16 17 18 17 16 15 15 16 18 19 20 22 23 25 25 25 26 27 27 27 28 29 29 31 32 32 32 32 32 31 31 31 32 33 33 32 32 32 32 31 29 28 27 25 23 22 21 21 22 21 20 19 19 19 19 20 20 21 23 24 25 23 21 20 19 17 15 13 11 11 12 13 14 16 17 17 17 17 18 19
18 17 17 18 19 19 20 20 19 18 17 17 18 19 20 22 23 25 26 27 27 29 29 29 30 30 31 32 33 34 35 35 35 34 33 33 32 32 33 34 34 34 34 34 33 32 30 28 27 26 24 22 22 22 22 21 20 20 19 19 19 19 20 22 23 25 26 24 22 21 19 16 15 12 11 12 13 14 16 17 17 18 18 18 19
19 19 19 20 21 22 22 21 21 20 20 20 21 22 23 24 25 26 28 28 29 30 31 31 32 33 33 34 35 36 37 38 38 37 36 35 34 34 34 34 34 35 36 36 35 34 32 30 28 28 27 25 24 23 23 23 22 21 21 20 20 20 20 21 21 22 26 26 24 23 22 18 15 14 12 12 13 14 14 16 18 18 19 19 19
21 22 22 23 23 24 23 22 22 22 22 22 23 24 26 27 27 28 30 30 31 32 33 33 34 34 34 35 36 38 39 39 40 39 39 38 37 36 37 36 36 36 37 37 37 37 35 33 31 30 30 28 27 26 26 26 24 23 23 23 23 22 21 21 21 21 22 26 27 25 23 20 17 16 15 14 13 14 14 16 18 18 19 20 20
25 25 26 26 25 25 24 23 23 23 24 24 25 26 28 29 29 30 31 33 33 34 34 34 35 35 36 37 38 39 40 40 40 40 40 39 39 39 39 38 38 39 39 39 39 39 38 37 35 34 34 32 31 29 28 28 27 26 26 25 25 25 25 23 23 22 21 22 26 27 25 22 19 18 17 16 14 14 14 16 18 19 19 20 21
29 29 28 27 26 24 24 24 24 25 25 25 26 27 29 30 31 32 33 34 35 35 35 36 36 37 37 38 39 40 40 41 41 41 41 40 40 40 41 40 40 41 41 41 41 41 40 40 39 39 38 37 36 34 32 31 30 29 28 28 27 27 28 27 26 26 23 21 22 27 28 25 21 19 18 18 16 15 15 16 17 18 20 21 22
32 29 27 26 24 22 23 25 26 26 26 27 28 29 30 32 33 34 35 36 37 37 37 38 38 39 39 39 40 41 41 41 41 41 41 41 41 41 42 42 43 43 43 43 43 42 42 41 41 42 43 42 41 39 37 35 34 32 31 30 29 29 29 29 29 30 28 24 22 24 29 28 24 22 20 18 17 16 16 17 17 17 18 21 23
32 28 25 24 23 23 26 27 28 28 28 29 30 31 32 33 35 36 37 37 38 38 39 39 40 40 40 41 41 41 42 42 42 42 42 42 42 42 43 44 44 44 45 45 44 44 43 42 42 43 44 45 45 44 43 41 39 37 35 33 32 31 31 30 31 32 32 30 27 24 27 30 27 25 23 20 18 17 17 18 18 18 18 20 23
Wind_Direction
233 232 231 231 241 251 252 251 243 227 218 214 219 229 238 244 248 253 255 258 262 265 268 271 274 276 278 279 279 280 281 282 284 286 286 288 289 291 292 293 293 293 293 293 293 292 291 291 290 290 290 290 290 290 289 289 289 289 289 289 289 288 288 288 288 288 288 287 286 285 283 282 281 281 281 282 283 283 284 286 288 290 291 292 295
233 228 226 229 236 244 245 244 239 230 221 214 215 223 234 244 249 254 257 260 263 266 269 271 274 276 278 279 280 281 281 282 284 285 286 287 288 289 291 291 291 291 292 292 293 293 293 292 292 291 291 290 290 290 289 290 290 290 289 289 288 287 287 287 288 288 288 287 286 284 282 281 280 280 281 282 282 283 284 286 288 289 289 291 294
230 227 223 224 226 233 235 235 237 234 226 218 217 222 230 239 247 252 255 258 261 264 267 269 272 275 278 281 283 284 285 285 285 286 286 287 287 288 288 289 289 290 290 291 292 292 292 292 292 292 291 290 289 290 290 290 290 289 289 289 288 287 287 287 287 287 286 285 284 282 281 280 279 280 281 281 282 283 284 285 286 287 288 291 295
227 222 212 209 214 218 223 236 242 239 229 223 220 223 229 236 244 249 253 256 260 265 269 273 278 282 286 289 290 291 291 290 289 289 288 288 287 286 286 286 287 288 289 290 290 290 290 290 290 290 289 288 288 288 289 289 288 287 286 286 286 285 285 284 284 284 283 282 281 281 279 278 278 279 280 281 281 282 283 283 284 285 288 292 297
222 217 206 205 225 265 277 255 244 238 228 223 220 221 227 236 243 249 254 259 264 269 274 278 281 285 288 290 291 293 294 295 294 294 292 290 289 287 285 285 285 286 287 287 287 287 286 286 286 286 284 284 284 285 285 283 282 281 281 280 280 280 280 279 279 279 278 277 277 277 276 276 276 278 279 279 280 280 281 281 283 285 289 292 297
207 206 205 211 232 269 278 240 223 225 223 221 220 222 229 239 247 252 259 264 269 273 276 279 281 282 284 286 288 290 291 292 292 293 292 290 287 284 282 281 281 281 281 281 281 280 279 280 279 278 277 277 278 278 278 277 275 275 275 274 273 273 274 274 275 275 275 274 274 273 272 273 274 276 276 277 278 279 280 281 283 285 288 292 295
193 192 186 189 201 214 221 199 202 213 217 219 220 226 233 241 248 255 262 268 272 274 276 277 279 280 281 284 283 283 282 283 283 282 281 280 279 277 275 275 274 275 274 274 273 272 272 273 272 272 272 273 273 273 273 272 271 271 271 270 270 270 271 271 271 272 272 272 272 271 271 272 273 274 275 276 276 277 279 281 282 284 287 291 294
171 179 170 157 159 165 168 170 185 203 212 218 225 232 239 244 251 260 266 269 269 270 270 270 271 271 272 273 274 275 275 277 277 275 274 273 272 270 269 268 268 268 269 268 268 267 268 268 268 268 269 270 270 270 270 270 270 271 271 271 272 272 272 272 272 271 270 271 271 271 271 272 273 273 274 275 276 277 279 281 282 283 286 289 292
153 168 169 154 145 149 158 170 184 200 210 219 227 235 242 249 254 258 260 259 258 258 259 259 261 263 265 266 267 268 269 270 270 270 269 268 267 267 267 267 267 266 266 265 265 265 266 267 267 268 269 270 270 270 271 271 272 273 274 275 276 277 277 278 277 276 274 272 272 273 273 273 274 275 275 276 276 278 280 281 281 282 283 286 290
137 148 165 158 147 154 166 180 191 200 208 216 223 230 236 241 244 245 247 247 248 249 251 253 256 259 261 263 264 264 264 266 266 266 265 265 265 266 266 266 266 266 265 265 265 265 266 268 269 270 271 271 272 272 272 273 275 276 277 278 279 281 282 283 283 283 281 279 278 278 278 277 277 277 277 277 278 279 280 279 279 279 281 284 288
135 138 156 157 151 159 173 187 194 199 204 209 214 219 224 227 231 234 238 241 244 248 250 253 255 256 258 259 259 261 262 264 265 265 264 264 265 264 264 264 265 265 266 266 268 269 270 273 275 277 277 277 277 276 276 278 279 279 279 280 281 283 285 287 287 286 284 284 283 283 283 282 281 280 279 279 279 279 278 277 277 277 279 283 287
139 138 149 152 154 167 181 193 199 203 208 212 216 220 225 230 235 240 244 248 251 255 257 259 261 261 262 262 262 262 262 264 264 265 265 265 266 267 267 268 269 271 272 273 275 277 280 283 286 288 288 288 286 286 286 286 285 284 282 281 280 281 283 285 288 287 286 286 285 284 284 284 283 282 281 280 278 276 275 275 276 276 279 282 286
121 117 123 128 142 162 182 200 209 215 220 225 232 238 245 250 255 260 262 265 267 269 271 272 273 273 274 274 274 274 274 275 275 275 276 277 277 278 279 281 282 284 285 286 287 288 290 291 292 292 291 290 290 290 289 288 287 285 283 282 280 279 278 281 284 285 287 287 285 284 283 283 283 282 280 277 274 273 273 273 273 275 277 281 286
98 95 98 102 111 120 137 178 208 223 237 247 262 270 275 279 279 280 280 281 282 282 282 281 280 280 280 281 283 284 286 288 289 290 290 290 289 290 290 291 292 292 293 293 294 295 295 295 294 292 289 288 288 288 287 285 283 281 280 279 278 277 278 279 280 281 284 284 282 281 280 279 279 277 275 272 270 269 269 270 271 272 275 280 286
100 99 100 99 100 101 109 130 161 187 205 223 260 277 283 285 284 286 288 290 289 289 286 285 284 284 285 285 286 288 290 291 292 292 292 292 292 292 293 294 295 295 296 296 296 296 296 295 294 291 288 287 286 286 284 283 281 279 277 276 276 277 278 279 276 276 278 278 279 279 277 276 273 270 268 267 267 267 267 268 269 272 276 281 286
98 96 94 91 90 89 94 110 141 162 169 169 169 172 184 206 233 256 270 283 286 289 287 288 289 289 291 291 292 293 294 295 294 294 293 293 293 294 295 296 297 297 297 297 296 296 296 295 294 292 290 288 287 285 284 282 281 280 280 280 280 279 279 278 276 275 274 274 275 275 275 274 272 269 268 267 266 266 266 267 269 273 277 281 287
96 94 92 88 84 80 81 97 140 164 167 165 165 166 171 180 191 203 222 265 288 300 299 297 296 295 296 298 300 302 305 305 305 306 304 304 303 303 304 304 305 305 304 303 303 303 304 303 301 299 296 294 290 288 286 284 283 282 283 283 284 284 284 283 282 281 277 274 273 272 272 272 272 272 271 270 267 266 266 267 270 273 277 282 288
98 95 92 84 77 70 71 100 158 173 178 177 175 174 174 178 175 163 130 41 18 6 5 360 347 341 332 330 332 331 331 329 326 324 321 319 319 319 318 318 317 316 316 317 318 317 316 313 310 307 303 298 293 291 290 288 286 283 282 282 284 287 290 290 290 288 285 281 278 277 276 275 273 272 271 269 267 265 265 266 268 271 275 281 287
97 92 88 80 72 64 62 85 160 173 177 183 185 182 177 162 129 92 69 50 41 39 44 49 50 48 39 35 32 27 19 7 356 347 341 337 334 330 327 325 325 326 330 332 332 330 327 322 318 314 308 302 297 294 291 289 287 284 283 282 283 285 289 293 293 291 291 289 286 283 281 278 275 272 270 267 265 264 263 264 266 270 275 281 286
92 89 85 78 72 66 65 74 125 161 165 167 172 168 148 105 81 69 60 46 39 40 46 52 55 55 51 50 49 44 36 25 10 357 349 343 337 332 329 328 330 336 341 343 342 339 336 331 327 322 316 309 303 298 292 289 288 287 285 283 282 281 284 288 289 290 291 290 287 284 281 279 276 274 270 266 264 263 263 264 267 272 276 281 285
85 82 80 76 72 69 69 73 91 123 136 133 125 111 91 77 72 70 66 58 54 52 53 57 59 58 55 54 51 45 36 22 11 3 354 343 333 326 325 329 334 343 349 349 348 345 342 337 334 331 324 318 312 305 298 294 292 290 288 284 282 280 282 283 282 285 287 285 284 282 279 278 276 272 269 266 264 263 263 266 269 273 276 280 284
77 77 77 75 73 71 72 73 80 94 107 107 101 94 85 77 74 71 66 65 69 67 65 64 63 62 57 52 45 39 30 20 16 11 3 355 347 338 332 336 345 355 358 356 353 350 347 344 342 339 332 326 322 316 310 305 301 296 292 288 286 284 282 281 282 284 283 282 282 281 279 278 276 272 269 268 267 266 266 268 270 272 275 278 281
72 73 74 75 76 75 76 78 81 87 93 96 94 89 84 78 75 69 62 62 65 66 65 63 61 59 54 47 41 37 31 25 24 18 15 17 16 16 16 11 7 8 6 1 359 357 355 354 353 350 342 336 331 324 320 315 309 303 297 293 291 290 288 285 285 286 285 285 282 279 279 279 278 275 272 271 271 270 269 268 269 271 272 275 278
74 74 74 74 77 78 79 82 84 87 89 90 88 84 78 74 71 68 64 60 60 59 59 57 55 54 50 45 42 40 36 32 29 26 27 31 33 36 38 30 17 10 5 2 1 1 360 359 360 360 355 349 343 334 328 323 317 312 304 298 297 296 296 295 293 292 290 288 285 284 282 280 281 280 276 273 272 271 270 269 270 270 270 272 275
78 79 77 75 75 77 79 81 83 84 85 84 83 80 75 71 69 66 64 62 60 58 57 54 52 51 49 47 45 44 41 38 35 33 33 34 37 38 36 28 17 10 6 3 2 2 1 359 360 3 2 360 357 350 341 333 326 320 312 305 305 304 301 301 300 298 296 293 292 292 288 285 284 281 278 276 274 272 272 272 273 271 270 271 273
78 79 77 75 73 73 74 76 79 80 81 79 76 75 71 68 65 62 61 61 59 59 58 55 54 52 51 48 47 45 42 39 38 37 35 34 36 35 32 28 21 16 13 8 5 4 3 360 359 1 3 3 4 2 357 350 341 332 320 313 312 311 306 306 303 300 300 298 297 295 291 290 288 284 280 279 278 275 273 273 274 273 273 272 272
71 71 71 71 70 69 67 67 69 72 73 72 70 67 64 60 55 54 52 52 52 54 55 54 52 51 48 46 45 43 40 38 37 36 35 34 33 32 30 27 23 20 17 12 8 7 5 2 1 1 360 0 3 4 3 359 355 348 336 326 322 320 319 316 307 300 301 302 300 297 293 291 291 289 284 281 280 278 276 274 274 275 275 273 273
68 64 64 65 65 64 63 62 61 61 62 62 61 58 55 52 47 43 40 39 39 41 44 43 42 42 41 39 39 39 37 36 34 33 32 30 29 28 26 24 22 20 17 15 12 9 6 3 2 1 358 356 357 0 1 359 358 357 352 344 336 330 326 318 309 304 304 304 302 297 294 291 290 288 285 283 280 278 277 275 274 274 275 275 275
73 67 62 59 60 60 60 59 56 53 53 52 50 46 44 42 39 35 31 30 29 29 30 29 28 29 30 30 31 31 30 31 29 28 25 21 20 19 18 18 17 15 13 12 10 9 7 4 2 1 358 354 352 355 358 356 354 354 356 353 345 337 331 322 313 308 305 305 303 299 296 293 291 289 287 284 278 274 275 276 273 271 273 275 276
64 65 60 55 51 52 56 58 55 50 46 44 39 36 32 29 27 25 23 20 19 18 19 19 19 19 19 19 19 19 21 21 19 17 13 11 10 8 8 9 9 9 9 7 6 4 3 4 3 1 359 355 350 350 352 353 350 347 346 347 345 342 338 331 322 313 307 307 305 300 297 297 298 297 294 288 279 271 270 273 271 269 270 273 275
25 36 36 34 32 31 37 44 45 42 38 33 29 26 22 16 12 10 9 8 6 5 6 7 8 9 9 9 7 7 9 8 5 3 1 1 360 358 358 359 358 360 1 360 358 357 358 0 0 359 359 356 352 347 345 345 345 341 336 336 337 338 341 340 332 320 310 308 308 304 300 299 302 303 299 294 288 277 268 267 268 267 266 269 271
335 355 1 359 1 1 5 14 21 25 23 17 12 10 6 1 357 354 353 352 350 350 350 352 354 355 355 356 357 357 357 354 352 351 351 351 351 350 350 350 348 349 349 348 348 349 351 353 354 354 354 353 350 347 344 342 341 338 335 336 337 335 340 347 345 336 320 309 307 307 306 302 299 301 300 297 294 287 273 265 265 265 264 266 269
318 334 343 340 338 336 338 347 358 4 6 2 356 353 349 343 340 338 337 335 335 336 336 338 340 339 341 343 345 346 346 344 344 343 343 344 345 346 345 344 343 342 340 339 339 340 342 344 346 346 347 347 347 344 342 342 341 339 338 340 341 337 338 344 348 346 336 323 312 306 305 305 301 297 296 295 296 294 282 269 265 265 266 268 269
313 323 331 330 326 322 322 329 340 347 351 348 344 342 337 331 328 327 325 324 324 325 324 326 328 330 331 333 334 335 335 335 336 336 338 340 342 344 344 343 342 340 338 336 334 334 334 335 336 337 338 339 341 340 337 337 338 338 337 339 339 336 335 337 339 342 340 337 330 316 304 303 306 301 295 292 293 295 289 275 265 263 264 266 269
302 311 319 319 315 312 311 317 328 336 339 339 337 334 328 323 319 318 317 315 313 312 313 315 318 321 323 325 326 327 327 328 330 333 335 338 340 341 342 341 340 339 337 335 333 331 330 329 329 329 329 330 331 334 333 333 334 333 332 334 336 333 333 334 335 337 338 341 342 335 315 300 299 300 297 293 291 292 290 280 267 261 260 261 265
293 303 310 311 308 305 304 310 322 329 332 334 332 326 321 318 315 313 310 307 305 303 304 306 310 314 317 318 320 321 323 324 327 329 330 333 334 336 336 336 336 336 335 333 332 330 329 327 325 323 322 321 322 326 328 328 328 329 328 329 332 331 331 332 332 334 335 338 343 342 331 310 296 291 292 292 290 287 285 281 271 261 258 257 259
295 301 305 306 305 302 300 305 316 322 326 328 325 320 316 316 315 313 309 306 305 303 303 304 305 308 310 312 313 316 318 320 321 322 323 326 327 329 330 331 331 331 331 331 330 329 328 326 324 320 316 314 314 316 319 320 321 324 325 326 326 328 330 329 327 329 332 334 336 336 333 324 308 294 288 287 286 285 282 279 272 262 256 255 255
302 304 303 303 304 301 299 302 309 314 318 319 317 314 312 312 312 311 309 308 305 304 304 304 304 305 306 306 308 310 312 313 313 314 316 318 321 324 325 325 326 326 326 327 327 327 325 324 321 318 314 310 307 307 310 312 314 318 321 321 321 324 327 325 322 324 329 331 331 328 324 325 320 305 292 284 280 278 277 276 271 263 256 253 252
301 300 299 298 298 296 295 298 302 307 309 309 308 307 307 306 306 306 306 304 301 300 300 300 301 301 302 303 304 305 306 306 307 308 310 313 315 317 318 319 321 322 323 324 324 324 323 321 319 317 313 308 303 301 302 304 306 310 314 315 315 318 320 320 319 319 323 326 326 324 320 319 321 315 301 287 277 269 267 270 268 263 258 254 253
296 296 294 291 289 285 286 291 296 301 301 300 300 301 301 300 300 301 301 299 298 297 297 297 297 297 298 298 299 301 302 302 302 302 303 307 311 313 313 315 317 320 322 322 322 322 321 320 318 315 313 308 303 300 298 297 299 302 305 307 308 310 312 313 315 316 317 319 318 318 319 317 316 318 312 297 283 274 266 264 266 266 261 255 253
295 296 294 290 287 283 281 284 290 295 295 293 295 296 296 295 296 298 297 295 295 295 295 295 295 295 296 297 298 299 299 300 301 300 297 299 306 312 314 314 316 318 320 322 322 322 321 319 317 314 311 308 303 300 297 294 293 295 297 299 300 301 304 307 310 312 313 315 315 312 314 315 313 314 316 306 292 282 274 267 266 268 265 256 252
298 297 297 292 289 285 284 287 292 294 293 291 291 291 291 292 295 296 295 294 294 295 295 294 295 296 296 298 299 300 300 301 303 303 299 296 299 307 312 313 314 317 320 322 322 322 321 319 316 313 310 306 303 300 297 293 291 290 290 292 294 296 299 301 303 306 309 311 313 311 308 309 310 311 312 309 298 288 282 276 269 266 264 258 252
303 300 298 294 290 288 288 292 296 296 295 292 289 288 288 290 293 293 293 293 294 294 294 294 295 296 296 297 298 298 299 301 302 303 302 298 297 301 308 311 313 316 319 320 321 321 320 318 316 313 309 306 302 299 296 293 290 287 286 285 287 290 294 295 298 300 304 307 307 307 305 304 308 310 306 305 301 292 285 280 273 264 259 259 256
304 300 298 294 292 291 292 295 296 296 294 291 289 288 288 289 290 291 291 292 293 293 293 294 295 295 296 296 297 298 299 300 301 301 301 299 297 300 306 310 313 315 317 317 318 319 318 317 315 312 309 305 302 299 296 293 290 287 284 281 280 281 285 288 293 297 299 301 301 300 301 303 306 309 303 298 299 296 289 281 274 266 259 256 256
306 302 299 295 294 293 294 295 295 294 293 290 289 288 287 288 288 289 289 291 291 291 292 293 294 294 295 296 297 298 298 299 299 300 299 298 297 300 305 308 310 313 314 314 315 316 316 315 313 310 308 305 301 298 296 294 292 289 285 281 277 275 276 279 285 290 293 295 296 296 299 302 304 305 301 294 293 297 295 286 278 270 264 258 254
309 305 301 297 296 296 296 296 294 293 292 291 290 289 288 287 287 287 287 288 288 289 290 291 292 292 294 295 295 296 297 298 299 299 299 298 296 299 303 305 307 309 310 311 312 313 314 313 310 308 305 303 301 298 296 294 292 290 288 285 280 276 272 273 274 279 285 289 290 291 295 300 303 301 297 292 289 291 294 291 282 272 265 259 254
309 306 303 300 298 298 297 296 294 293 292 290 289 288 288 287 286 286 286 286 286 286 288 289 290 291 292 292 293 294 295 297 298 298 299 298 296 297 301 303 304 307 308 309 310 311 312 311 309 306 303 301 298 297 295 293 292 290 288 286 284 281 276 273 271 269 274 281 285 286 289 294 299 298 295 293 288 286 289 291 285 274 263 256 252
308 305 302 300 298 296 295 294 293 292 290 289 287 285 286 286 285 285 284 284 284 285 286 286 287 288 289 289 290 291 293 294 296 296 297 297 296 295 298 301 303 305 307 308 308 309 310 310 308 305 302 299 297 295 293 292 290 289 287 286 284 283 281 277 274 270 266 270 278 282 284 287 292 295 295 293 289 285 286 289 287 279 266 255 249
306 304 301 297 295 294 294 294 293 291 289 286 284 283 283 283 283 283 283 283 283 283 284 284 284 285 286 287 288 289 290 291 293 294 294 295 295 295 297 300 302 304 305 305 306 307 308 308 307 305 302 300 298 296 294 291 289 287 286 285 283 283 282 281 278 275 270 264 268 276 280 282 284 287 289 289 287 285 285 285 286 282 272 259 250
304 303 298 294 291 292 295 296 295 292 288 285 283 281 281 281 281 281 281 282 283 283 282 282 283 284 285 285 286 287 288 289 291 292 292 293 294 295 297 299 300 301 302 302 303 304 305 305 304 303 302 300 299 297 296 293 291 288 286 284 282 281 281 281 279 277 275 270 264 266 273 277 279 280 282 283 283 282 282 283 282 281 274 263 254
300 299 293 288 287 292 296 298 296 293 288 285 283 282 280 280 280 280 280 281 282 282 282 282 283 283 283 284 285 285 287 288 289 290 291 292 293 294 295 296 297 298 298 299 299 300 301 301 300 299 299 298 298 297 296 295 293 291 288 285 283 281 279 279 278 277 277 274 269 264 266 270 273 276 277 279 279 276 275 277 277 277 275 268 259
Height
5852 5853 5853 5854 5855 5856 5857 5858 5858 5858 5859 5860 5862 5863 5865 5866 5867 5868 5869 5869 5870 5870 5870 5870 5870 5870 5870 5870 5870 5870 5870 5870 5870 5870 5870 5870 5870 5870 5870 5871 5871 5871 5871 5871 5871 5870 5870 5870 5869 5869 5869 5868 5868 5868 5868 5868 5868 5868 5867 5867 5866 5866 5865 5864 5864 5864 5864 5863 5863 5862 5861 5861 5860 5859 5858 5857 5857 5856 5855 5854 5853 5852 5852 5850 5849
5852 5853 5853 5854 5855 5855 5856 5856 5856 5857 5858 5859 5861 5863 5865 5866 5867 5868 5868 5869 5869 5869 5869 5869 5869 5869 5868 5868 5868 5868 5868 5868 5868 5868 5868 5868 5868 5869 5869 5869 5869 5869 5869 5869 5869 5869 5868 5868 5868 5867 5867 5867 5867 5866 5866 5866 5866 5866 5865 5865 5864 5864 5863 5863 5862 5862 5862 5861 5861 5860 5859 5859 5858 5857 5857 5856 5855 5854 5853 5852 5851 5851 5850 5849 5848
5852 5853 5853 5854 5854 5855 5855 5856 5856 5857 5858 5860 5861 5863 5864 5865 5866 5867 5867 5867 5867 5867 5867 5867 5867 5867 5867 5867 5867 5867 5867 5867 5867 5867 5867 5867 5867 5867 5867 5867 5867 5867 5867 5867 5867 5867 5866 5866 5866 5865 5865 5865 5865 5864 5864 5864 5864 5863 5863 5862 5862 5861 5861 5861 5860 5860 5859 5859 5859 5858 5858 5857 5856 5856 5855 5854 5853 5852 5851 5850 5850 5849 5848 5847 5846
5852 5853 5853 5854 5855 5856 5856 5856 5857 5858 5859 5860 5861 5862 5863 5864 5865 5865 5865 5865 5865 5865 5865 5866 5866 5866 5866 5866 5866 5866 5865 5865 5865 5865 5865 5865 5865 5865 5865 5865 5865 5865 5865 5865 5865 5864 5864 5864 5864 5863 5863 5863 5862 5862 5862 5862 5862 5861 5861 5860 5860 5859 5859 5858 5858 5858 5857 5857 5857 5856 5856 5855 5855 5854 5853 5853 5851 5851 5850 5849 5848 5847 5846 5845 5844
5853 5854 5855 5856 5857 5857 5857 5858 5858 5859 5860 5860 5861 5861 5862 5863 5863 5863 5863 5864 5864 5864 5864 5864 5864 5864 5864 5864 5864 5864 5864 5864 5864 5864 5864 5863 5863 5863 5863 5863 5863 5863 5863 5863 5862 5862 5862 5862 5862 5861 5861 5861 5860 5860 5860 5860 5860 5859 5859 5859 5858 5857 5857 5856 5856 5856 5856 5855 5855 5854 5854 5854 5853 5852 5852 5851 5850 5849 5848 5847 5847 5846 5845 5844 5843
5853 5855 5856 5857 5857 5857 5857 5857 5858 5858 5859 5860 5860 5861 5861 5862 5862 5862 5862 5862 5863 5863 5863 5863 5863 5863 5863 5863 5863 5863 5863 5863 5862 5862 5862 5862 5862 5862 5862 5862 5862 5862 5862 5861 5861 5860 5860 5860 5860 5859 5859 5859 5858 5858 5858 5858 5858 5857 5857 5857 5856 5856 5855 5854 5854 5854 5854 5853 5853 5853 5852 5852 5851 5851 5850 5849 5848 5847 5847 5846 5845 5844 5843 5843 5842
5852 5853 5855 5856 5856 5856 5856 5856 5857 5858 5859 5860 5860 5861 5861 5861 5861 5861 5862 5862 5862 5862 5862 5862 5862 5862 5861 5861 5861 5861 5861 5861 5861 5861 5861 5861 5861 5861 5861 5861 5860 5860 5860 5859 5859 5859 5858 5858 5858 5857 5857 5857 5857 5857 5857 5856 5856 5856 5855 5855 5854 5854 5853 5852 5852 5852 5852 5851 5851 5851 5850 5850 5849 5849 5848 5848 5847 5846 5845 5845 5844 5843 5842 5841 5841
5851 5852 5853 5854 5855 5855 5856 5856 5857 5858 5859 5859 5860 5860 5860 5861 5861 5861 5861 5861 5861 5861 5860 5860 5860 5860 5860 5860 5860 5860 5860 5860 5860 5860 5860 5860 5860 5860 5860 5859 5859 5859 5858 5858 5857 5857 5857 5856 5856 5855 5855 5855 5855 5855 5855 5854 5854 5854 5853 5853 5853 5852 5851 5850 5850 5850 5850 5850 5849 5849 5849 5848 5848 5847 5847 5846 5845 5845 5844 5843 5842 5841 5841 5840 5839
5851 5852 5853 5854 5854 5855 5856 5856 5857 5858 5858 5859 5859 5860 5860 5860 5861 5861 5860 5860 5860 5859 5859 5859 5859 5859 5859 5859 5859 5859 5859 5859 5859 5859 5859 5859 5859 5859 5859 5858 5858 5857 5857 5856 5856 5855 5855 5855 5854 5854 5853 5853 5852 5852 5852 5852 5852 5852 5852 5851 5851 5850 5850 5849 5848 5848 5848 5848 5847 5847 5847 5847 5846 5846 5845 5845 5844 5843 5842 5841 5841 5840 5839 5839 5838
5851 5852 5853 5854 5854 5854 5855 5856 5856 5857 5858 5858 5859 5859 5860 5860 5860 5860 5859 5859 5858 5858 5858 5858 5858 5858 5858 5858 5858 5858 5857 5857 5857 5857 5857 5857 5857 5857 5857 5857 5857 5856 5856 5855 5855 5854 5854 5853 5853 5852 5851 5851 5851 5850 5850 5850 5850 5850 5850 5849 5849 5849 5848 5848 5847 5846 5846 5846 5845 5845 5845 5845 5844 5844 5844 5843 5842 5841 5841 5840 5839 5838 5838 5837 5837
5851 5852 5853 5853 5854 5854 5855 5856 5856 5857 5857 5858 5858 5859 5859 5859 5859 5858 5858 5858 5858 5858 5858 5858 5858 5857 5857 5857 5857 5857 5857 5856 5857 5856 5856 5856 5856 5856 5856 5856 5856 5855 5855 5854 5854 5854 5853 5853 5852 5851 5851 5850 5850 5849 5849 5849 5848 5848 5848 5848 5848 5848 5847 5847 5846 5845 5845 5844 5844 5843 5843 5842 5842 5842 5841 5841 5840 5840 5839 5838 5838 5837 5837 5836 5835
5851 5852 5852 5853 5854 5855 5855 5856 5857 5857 5857 5858 5858 5858 5858 5858 5858 5858 5858 5858 5858 5858 5857 5857 5857 5857 5857 5857 5857 5857 5856 5856 5856 5856 5856 5856 5856 5856 5855 5855 5855 5854 5854 5854 5853 5853 5852 5852 5852 5851 5850 5849 5849 5848 5848 5848 5847 5847 5846 5846 5846 5846 5845 5845 5844 5843 5843 5843 5842 5841 5841 5840 5840 5840 5839 5839 5838 5838 5838 5837 5836 5836 5835 5835 5834
5851 5852 5853 5854 5854 5855 5856 5856 5857 5857 5857 5857 5858 5858 5858 5858 5858 5858 5858 5858 5858 5858 5858 5858 5857 5857 5857 5857 5857 5857 5857 5856 5856 5856 5856 5856 5856 5856 5855 5855 5855 5854 5854 5853 5853 5852 5852 5851 5850 5850 5849 5848 5847 5847 5846 5846 5846 5845 5844 5844 5844 5844 5843 5844 5843 5841 5842 5842 5841 5840 5839 5839 5838 5838 5837 5837 5837 5837 5836 5836 5835 5835 5834 5833 5833
5852 5852 5853 5854 5855 5856 5856 5856 5856 5857 5857 5857 5857 5857 5858 5858 5858 5858 5858 5858 5858 5858 5858 5857 5857 5857 5857 5857 5857 5857 5857 5857 5856 5856 5856 5856 5856 5856 5855 5855 5854 5854 5853 5853 5852 5851 5850 5850 5849 5848 5847 5846 5845 5844 5844 5844 5843 5843 5842 5842 5842 5842 5841 5842 5841 5840 5840 5840 5839 5839 5838 5837 5837 5836 5836 5836 5835 5835 5835 5834 5834 5833 5833 5832 5832
5852 5853 5854 5855 5855 5855 5856 5856 5856 5856 5856 5856 5857 5857 5857 5857 5857 5858 5858 5858 5858 5857 5857 5857 5857 5857 5857 5857 5857 5857 5856 5856 5856 5856 5856 5855 5855 5855 5854 5854 5853 5853 5852 5851 5850 5850 5849 5848 5847 5846 5845 5844 5843 5842 5842 5841 5841 5840 5840 5840 5839 5839 5839 5840 5839 5839 5839 5838 5837 5837 5837 5836 5836 5835 5835 5834 5834 5833 5833 5833 5832 5832 5831 5831 5830
5853 5854 5855 5855 5855 5855 5855 5855 5855 5855 5855 5856 5856 5856 5857 5857 5857 5857 5857 5857 5857 5857 5857 5856 5856 5856 5856 5856 5856 5856 5856 5855 5855 5855 5855 5855 5854 5853 5853 5852 5852 5851 5851 5850 5849 5848 5848 5847 5846 5845 5844 5843 5841 5840 5839 5839 5839 5838 5838 5838 5837 5837 5837 5837 5837 5837 5837 5836 5836 5835 5835 5835 5834 5834 5833 5833 5832 5832 5831 5831 5831 5830 5830 5829 5829
5854 5855 5855 5856 5856 5856 5855 5855 5855 5855 5855 5856 5856 5856 5856 5857 5857 5857 5857 5857 5857 5857 5856 5856 5856 5856 5856 5856 5855 5855 5855 5855 5855 5854 5854 5854 5853 5852 5852 5851 5850 5850 5849 5849 5848 5847 5847 5846 5845 5844 5843 5842 5840 5839 5838 5837 5837 5837 5836 5836 5836 5835 5835 5835 5835 5835 5835 5835 5835 5834 5834 5833 5833 5832 5832 5832 5831 5831 5830 5830 5829 5829 5829 5828 5828
5855 5855 5856 5856 5856 5855 5854 5854 5854 5854 5855 5856 5856 5856 5857 5857 5857 5857 5857 5857 5857 5857 5857 5856 5856 5856 5856 5855 5855 5855 5855 5854 5854 5854 5853 5853 5852 5851 5851 5850 5849 5849 5848 5848 5848 5847 5846 5845 5844 5843 5842 5840 5839 5838 5837 5836 5835 5835 5835 5834 5834 5834 5834 5834 5834 5833 5833 5833 5833 5833 5833 5832 5832 5831 5831 5830 5830 5830 5829 5829 5828 5828 5828 5827 5826
5856 5856 5856 5856 5855 5854 5853 5852 5852 5853 5854 5855 5856 5857 5857 5858 5858 5857 5857 5857 5857 5857 5857 5857 5856 5856 5856 5855 5855 5855 5855 5854 5854 5853 5853 5852 5851 5851 5850 5849 5848 5848 5848 5848 5847 5846 5845 5844 5843 5842 5840 5839 5838 5837 5835 5834 5834 5833 5833 5833 5833 5833 5832 5832 5832 5831 5831 5831 5831 5831 5831 5831 5831 5830 5829 5829 5829 5828 5828 5827 5827 5827 5826 5826 5825
5856 5856 5856 5856 5855 5854 5852 5851 5851 5852 5854 5856 5857 5858 5858 5858 5858 5858 5858 5858 5858 5858 5857 5857 5857 5856 5856 5856 5856 5855 5855 5854 5854 5853 5853 5852 5851 5850 5849 5848 5847 5847 5847 5847 5846 5845 5844 5843 5842 5841 5840 5838 5837 5836 5834 5833 5832 5832 5832 5831 5831 5831 5831 5830 5829 5829 5829 5829 5829 5830 5829 5829 5829 5829 5828 5828 5827 5827 5826 5826 5826 5825 5825 5824 5823
5858 5857 5857 5856 5855 5854 5853 5852 5852 5853 5855 5856 5858 5858 5859 5859 5858 5858 5858 5858 5858 5858 5858 5858 5857 5857 5857 5856 5856 5855 5855 5854 5854 5853 5852 5851 5849 5848 5848 5847 5847 5846 5846 5845 5845 5844 5843 5842 5841 5840 5839 5837 5836 5834 5833 5832 5831 5830 5830 5830 5830 5829 5829 5829 5828 5828 5828 5827 5827 5828 5828 5828 5828 5828 5827 5827 5826 5826 5825 5825 5824 5824 5823 5823 5822
5859 5858 5857 5856 5855 5854 5853 5853 5853 5854 5856 5857 5858 5858 5859 5859 5859 5859 5859 5859 5858 5858 5859 5858 5858 5858 5857 5857 5856 5856 5855 5854 5853 5852 5851 5850 5848 5847 5847 5847 5847 5846 5845 5845 5844 5843 5842 5841 5840 5839 5837 5836 5835 5834 5832 5832 5831 5830 5829 5828 5828 5828 5828 5827 5826 5826 5826 5826 5826 5826 5826 5826 5826 5826 5826 5826 5825 5825 5824 5824 5823 5822 5822 5821 5821
5861 5860 5859 5858 5857 5856 5855 5854 5855 5856 5857 5858 5858 5859 5859 5859 5859 5859 5860 5860 5859 5859 5859 5859 5859 5858 5857 5857 5857 5856 5855 5854 5853 5852 5851 5850 5848 5847 5846 5846 5846 5846 5845 5844 5843 5842 5841 5840 5839 5838 5837 5835 5834 5833 5832 5831 5830 5829 5828 5827 5827 5827 5827 5826 5825 5825 5825 5825 5824 5824 5824 5824 5825 5825 5825 5824 5824 5824 5823 5822 5822 5821 5820 5820 5819
5861 5861 5861 5860 5859 5857 5857 5856 5856 5857 5857 5858 5859 5859 5859 5860 5860 5860 5860 5860 5860 5860 5860 5860 5859 5859 5858 5858 5857 5856 5855 5854 5854 5853 5851 5850 5848 5847 5847 5847 5846 5846 5845 5844 5843 5842 5841 5840 5839 5838 5836 5835 5834 5832 5831 5830 5829 5828 5827 5827 5826 5826 5826 5826 5825 5824 5824 5824 5823 5823 5823 5823 5823 5823 5823 5823 5823 5822 5822 5821 5821 5820 5819 5818 5818
5862 5862 5861 5861 5860 5859 5858 5857 5857 5857 5858 5858 5859 5859 5859 5860 5860 5860 5860 5860 5860 5860 5860 5860 5860 5860 5859 5858 5857 5857 5856 5855 5854 5853 5852 5851 5849 5848 5848 5847 5846 5846 5845 5844 5843 5842 5841 5840 5839 5837 5836 5835 5833 5832 5831 5830 5828 5827 5827 5826 5825 5825 5825 5825 5824 5824 5824 5823 5822 5822 5822 5821 5821 5821 5822 5822 5822 5821 5821 5820 5820 5819 5818 5817 5817
5863 5862 5862 5861 5861 5860 5860 5859 5858 5858 5858 5859 5859 5859 5859 5860 5860 5860 5861 5861 5861 5860 5860 5860 5860 5860 5860 5859 5858 5857 5856 5855 5855 5854 5853 5851 5850 5849 5849 5848 5847 5846 5845 5844 5843 5842 5841 5840 5838 5837 5836 5834 5833 5831 5830 5829 5828 5827 5826 5825 5825 5825 5824 5824 5823 5823 5823 5822 5821 5821 5820 5820 5820 5820 5820 5820 5820 5820 5820 5819 5819 5818 5817 5817 5816
5863 5863 5862 5862 5861 5861 5860 5859 5859 5858 5859 5859 5859 5859 5860 5860 5860 5861 5861 5861 5861 5861 5860 5860 5860 5860 5860 5859 5858 5857 5856 5856 5855 5854 5853 5852 5851 5850 5849 5848 5847 5846 5845 5844 5843 5842 5840 5839 5838 5837 5835 5834 5833 5831 5830 5828 5827 5826 5825 5825 5824 5824 5823 5822 5822 5821 5821 5821 5820 5819 5819 5819 5818 5818 5819 5819 5819 5819 5818 5818 5817 5817 5816 5816 5815
5864 5864 5863 5863 5862 5861 5860 5859 5859 5859 5859 5859 5859 5859 5859 5860 5860 5861 5861 5861 5861 5861 5861 5860 5860 5860 5859 5859 5858 5857 5857 5856 5855 5854 5853 5853 5852 5851 5850 5849 5848 5847 5846 5844 5843 5841 5840 5838 5837 5836 5835 5833 5832 5831 5829 5828 5827 5826 5824 5823 5822 5822 5822 5821 5821 5820 5819 5819 5819 5818 5817 5817 5817 5817 5817 5817 5817 5817 5817 5816 5816 5816 5815 5815 5814
5866 5866 5865 5864 5864 5862 5861 5860 5860 5859 5859 5859 5859 5859 5859 5860 5860 5860 5860 5861 5861 5861 5861 5860 5860 5860 5859 5859 5858 5858 5857 5856 5855 5854 5853 5852 5851 5851 5850 5849 5848 5847 5845 5844 5842 5841 5840 5839 5837 5836 5834 5833 5831 5830 5829 5827 5826 5825 5824 5822 5822 5821 5821 5820 5819 5818 5818 5817 5817 5817 5816 5816 5815 5815 5815 5815 5815 5815 5815 5815 5815 5814 5814 5814 5813
5867 5866 5866 5866 5865 5864 5862 5861 5861 5860 5859 5859 5859 5859 5859 5860 5860 5860 5860 5860 5860 5860 5860 5860 5860 5860 5859 5859 5858 5858 5857 5855 5855 5854 5853 5852 5851 5850 5850 5849 5848 5847 5845 5844 5843 5842 5841 5839 5838 5836 5835 5833 5831 5830 5828 5827 5826 5824 5823 5822 5822 5821 5820 5819 5817 5816 5816 5816 5816 5816 5815 5815 5814 5814 5813 5813 5813 5813 5813 5813 5813 5813 5813 5812 5812
5866 5866 5866 5867 5866 5865 5864 5862 5861 5860 5859 5859 5859 5859 5860 5860 5860 5860 5860 5860 5860 5860 5860 5860 5860 5859 5859 5859 5858 5857 5856 5855 5854 5853 5853 5852 5851 5850 5849 5848 5847 5846 5845 5844 5843 5842 5840 5839 5838 5836 5835 5833 5831 5830 5828 5827 5826 5825 5823 5822 5821 5821 5820 5818 5817 5815 5815 5815 5814 5814 5814 5813 5813 5813 5813 5812 5812 5812 5812 5812 5812 5811 5811 5811 5811
5865 5865 5865 5866 5866 5865 5864 5862 5861 5860 5859 5859 5859 5859 5859 5860 5860 5860 5860 5860 5860 5859 5859 5859 5859 5859 5859 5858 5857 5856 5856 5855 5854 5853 5852 5851 5850 5849 5848 5848 5847 5846 5845 5843 5842 5841 5839 5838 5837 5836 5834 5832 5831 5830 5828 5827 5826 5825 5824 5822 5821 5820 5819 5818 5817 5815 5814 5814 5813 5813 5812 5812 5812 5812 5812 5812 5811 5811 5811 5810 5810 5810 5810 5810 5809
5863 5863 5864 5865 5865 5865 5864 5862 5860 5859 5858 5858 5858 5859 5859 5859 5859 5859 5859 5859 5859 5858 5858 5858 5858 5858 5857 5857 5856 5855 5855 5854 5853 5852 5851 5850 5849 5848 5847 5846 5845 5844 5843 5842 5840 5839 5838 5837 5836 5835 5833 5832 5830 5829 5827 5826 5824 5823 5822 5821 5820 5819 5818 5818 5816 5815 5813 5812 5812 5812 5811 5811 5811 5811 5811 5810 5810 5810 5810 5809 5809 5809 5808 5808 5808
5861 5861 5862 5863 5864 5864 5864 5862 5860 5859 5858 5857 5857 5858 5858 5858 5858 5859 5859 5858 5858 5858 5857 5857 5856 5856 5856 5855 5855 5854 5853 5853 5852 5851 5850 5849 5848 5847 5846 5845 5844 5843 5842 5840 5839 5838 5836 5835 5834 5833 5832 5830 5829 5828 5826 5825 5823 5822 5821 5820 5819 5818 5817 5817 5816 5815 5813 5811 5811 5811 5810 5810 5810 5810 5809 5809 5809 5809 5809 5809 5808 5807 5807 5807 5807
5860 5860 5861 5861 5862 5863 5863 5861 5859 5858 5857 5856 5857 5857 5857 5857 5857 5857 5857 5857 5857 5857 5856 5856 5855 5855 5854 5853 5853 5852 5852 5851 5851 5850 5848 5847 5847 5846 5845 5844 5843 5842 5840 5839 5838 5836 5835 5834 5833 5832 5830 5829 5828 5827 5825 5824 5822 5821 5819 5818 5817 5817 5816 5816 5815 5814 5813 5811 5810 5810 5810 5810 5809 5809 5808 5807 5807 5808 5808 5808 5807 5806 5806 5805 5806
5859 5860 5860 5860 5861 5861 5861 5860 5858 5856 5856 5855 5855 5856 5856 5856 5856 5856 5856 5856 5856 5855 5855 5854 5854 5853 5852 5852 5851 5850 5850 5849 5849 5848 5847 5846 5845 5844 5843 5842 5841 5840 5838 5837 5836 5835 5833 5832 5831 5830 5829 5827 5826 5825 5824 5823 5821 5820 5819 5817 5816 5815 5815 5814 5814 5813 5812 5811 5810 5809 5809 5809 5808 5808 5807 5806 5806 5806 5806 5806 5806 5805 5804 5804 5804
5859 5859 5859 5859 5859 5859 5859 5858 5856 5855 5854 5854 5854 5854 5854 5854 5854 5854 5854 5854 5854 5853 5853 5852 5852 5851 5851 5850 5849 5848 5848 5847 5846 5846 5845 5844 5843 5842 5841 5840 5838 5837 5836 5835 5834 5832 5831 5830 5829 5828 5827 5826 5825 5824 5823 5822 5821 5819 5818 5816 5815 5814 5813 5812 5812 5812 5811 5810 5809 5808 5808 5808 5807 5806 5805 5804 5804 5804 5804 5804 5804 5804 5803 5803 5803
5857 5858 5858 5857 5857 5857 5858 5856 5855 5853 5852 5852 5852 5852 5853 5853 5853 5852 5852 5852 5851 5851 5851 5850 5850 5849 5849 5848 5847 5846 5846 5845 5844 5843 5842 5841 5841 5840 5839 5838 5837 5836 5834 5833 5832 5831 5830 5828 5828 5827 5825 5824 5823 5823 5822 5821 5819 5818 5817 5815 5814 5813 5812 5811 5810 5810 5810 5809 5808 5807 5807 5807 5806 5804 5803 5802 5802 5802 5802 5803 5803 5803 5802 5802 5802
5856 5856 5856 5856 5855 5856 5856 5855 5853 5851 5850 5850 5850 5850 5851 5851 5851 5851 5850 5850 5849 5849 5848 5848 5848 5847 5847 5846 5845 5845 5844 5843 5842 5841 5840 5839 5838 5838 5837 5836 5835 5834 5832 5831 5830 5829 5828 5827 5826 5824 5823 5822 5821 5821 5820 5819 5818 5817 5816 5814 5813 5812 5811 5810 5809 5809 5808 5807 5807 5806 5806 5806 5805 5803 5802 5801 5801 5801 5800 5801 5801 5801 5801 5800 5800
5854 5854 5854 5854 5853 5854 5854 5853 5851 5850 5848 5848 5848 5848 5849 5849 5849 5849 5849 5848 5847 5847 5846 5846 5845 5845 5844 5844 5843 5842 5841 5840 5839 5838 5837 5837 5836 5835 5835 5834 5833 5832 5830 5829 5828 5827 5826 5824 5823 5822 5821 5820 5818 5818 5818 5817 5816 5815 5814 5813 5812 5811 5810 5808 5807 5807 5806 5805 5805 5805 5805 5804 5804 5802 5801 5800 5799 5799 5799 5799 5799 5799 5800 5799 5799
5852 5852 5852 5851 5851 5852 5852 5851 5849 5848 5847 5846 5846 5846 5847 5847 5847 5847 5847 5846 5845 5845 5844 5843 5843 5842 5841 5840 5840 5839 5838 5838 5837 5836 5835 5834 5833 5832 5831 5831 5830 5830 5828 5827 5825 5824 5823 5822 5821 5820 5818 5817 5816 5815 5815 5815 5814 5813 5813 5812 5810 5809 5808 5807 5806 5805 5804 5803 5803 5803 5803 5803 5802 5801 5800 5798 5798 5797 5797 5797 5797 5797 5798 5798 5798
5850 5849 5849 5849 5849 5850 5849 5848 5847 5846 5845 5844 5843 5844 5844 5844 5844 5844 5844 5843 5843 5842 5841 5840 5840 5839 5838 5837 5836 5836 5835 5834 5833 5832 5831 5830 5829 5828 5828 5827 5827 5826 5825 5824 5822 5821 5820 5819 5818 5817 5816 5815 5813 5812 5812 5812 5812 5811 5811 5810 5809 5807 5806 5805 5804 5803 5802 5801 5801 5801 5802 5802 5801 5800 5799 5797 5796 5796 5795 5795 5796 5796 5796 5796 5796
5848 5848 5847 5847 5847 5847 5847 5846 5844 5843 5842 5841 5841 5841 5842 5842 5842 5841 5841 5840 5840 5839 5838 5837 5836 5835 5834 5833 5833 5832 5831 5830 5829 5828 5827 5826 5825 5825 5824 5823 5822 5821 5820 5820 5819 5818 5817 5816 5815 5814 5813 5812 5811 5809 5809 5808 5808 5808 5808 5808 5807 5806 5804 5803 5802 5801 5800 5800 5799 5799 5799 5799 5799 5799 5797 5796 5795 5794 5794 5794 5794 5794 5795 5795 5795
5847 5846 5845 5845 5845 5845 5844 5843 5841 5840 5839 5839 5839 5839 5839 5839 5839 5838 5838 5837 5836 5835 5834 5834 5833 5832 5831 5830 5829 5828 5827 5826 5826 5825 5824 5823 5822 5821 5820 5819 5817 5817 5816 5815 5815 5814 5813 5812 5812 5811 5811 5810 5808 5807 5806 5805 5805 5805 5805 5805 5805 5804 5803 5801 5800 5798 5798 5798 5797 5797 5797 5797 5797 5797 5796 5795 5794 5793 5793 5793 5793 5793 5793 5793 5793
5844 5843 5843 5842 5842 5842 5841 5840 5838 5837 5836 5836 5836 5836 5836 5836 5836 5835 5835 5834 5833 5832 5831 5830 5829 5828 5827 5826 5825 5823 5822 5822 5821 5821 5820 5819 5818 5817 5816 5814 5813 5812 5812 5811 5811 5810 5810 5809 5808 5807 5807 5807 5806 5805 5803 5803 5802 5802 5801 5801 5801 5801 5801 5800 5799 5797 5795 5795 5795 5795 5795 5795 5794 5794 5794 5793 5792 5792 5791 5791 5791 5791 5791 5791 5791
5841 5840 5840 5840 5839 5838 5837 5836 5835 5834 5833 5833 5833 5833 5833 5833 5833 5832 5831 5831 5830 5828 5827 5826 5825 5824 5823 5822 5820 5819 5818 5817 5816 5816 5815 5814 5813 5813 5812 5811 5810 5809 5808 5807 5806 5806 5805 5805 5805 5804 5803 5803 5802 5802 5801 5800 5800 5799 5798 5798 5798 5797 5797 5797 5797 5796 5794 5792 5792 5792 5792 5792 5792 5792 5791 5791 5791 5790 5789 5789 5789 5789 5789 5789 5789
5838 5838 5837 5836 5835 5834 5833 5832 5831 5831 5830 5830 5830 5829 5829 5829 5829 5828 5828 5827 5826 5825 5824 5823 5821 5820 5819 5818 5817 5816 5814 5813 5812 5811 5810 5809 5808 5808 5807 5806 5805 5805 5804 5803 5802 5801 5801 5800 5800 5800 5799 5799 5798 5798 5797 5796 5796 5796 5795 5795 5794 5794 5794 5793 5793 5794 5793 5791 5789 5789 5789 5789 5789 5789 5789 5789 5789 5789 5788 5787 5787 5787 5787 5787 5788
5835 5835 5834 5833 5832 5831 5830 5829 5828 5828 5827 5827 5827 5826 5826 5826 5825 5825 5824 5823 5822 5821 5820 5819 5817 5816 5815 5814 5813 5812 5811 5809 5808 5807 5805 5804 5804 5803 5802 5801 5800 5800 5799 5798 5797 5796 5796 5795 5795 5795 5794 5794 5794 5794 5793 5793 5792 5792 5792 5791 5791 5790 5790 5790 5789 5789 5790 5790 5787 5786 5786 5786 5786 5786 5786 5786 5787 5787 5786 5786 5785 5785 5785 5785 5786
5831 5831 5830 5829 5828 5827 5827 5826 5825 5825 5824 5824 5823 5823 5823 5822 5822 5821 5820 5819 5818 5817 5816 5815 5813 5812 5811 5810 5809 5808 5807 5805 5804 5803 5801 5800 5799 5798 5797 5796 5795 5794 5794 5793 5792 5792 5791 5790 5789 5789 5789 5788 5789 5789 5789 5788 5788 5788 5788 5787 5787 5787 5786 5786 5785 5784 5785 5786 5786 5784 5782 5783 5784 5784 5784 5784 5784 5784 5784 5783 5783 5782 5782 5783 5783
5827 5827 5826 5825 5825 5824 5823 5822 5822 5821 5821 5820 5820 5820 5819 5818 5818 5817 5815 5815 5813 5813 5812 5810 5809 5808 5807 5805 5804 5803 5802 5801 5799 5798 5797 5796 5794 5793 5792 5791 5791 5790 5789 5789 5788 5787 5786 5786 5785 5784 5783 5782 5782 5782 5783 5783 5783 5783 5783 5783 5783 5783 5783 5782 5781 5780 5780 5781 5782 5782 5779 5779 5781 5781 5781 5781 5782 5782 5782 5781 5781 5780 5780 5781 5781
5824 5823 5822 5821 5821 5820 5820 5819 5818 5818 5817 5817 5816 5816 5815 5814 5813 5812 5811 5810 5809 5808 5807 5805 5804 5803 5801 5800 5799 5798 5796 5795 5794 5793 5792 5791 5790 5789 5788 5787 5786 5785 5785 5784 5784 5783 5782 5782 5781 5780 5778 5777 5776 5775 5776 5776 5777 5777 5778 5778 5778 5778 5778 5778 5777 5776 5776 5776 5777 5778 5777 5775 5777 5778 5778 5778 5779 5779 5779 5779 5778 5778 5778 5778 5779